{"data":{"norad_id":67530,"epoch":"2026-05-25T03:53:55.339584Z","epoch_age_seconds":58255,"freshness":"FRESH","line1":"1 67530U 26013J   26145.16244606 -.00000089  00000+0  75790-4 0  9999","line2":"2 67530  50.0069  77.8665 0000919  26.8879 333.2040 13.29328166 16981","mean_motion":13.29328166,"eccentricity":9.19e-5,"inclination_deg":50.0069,"raan_deg":77.8665,"arg_perigee_deg":26.8879,"mean_anomaly_deg":333.204,"bstar":7.579e-5,"rev_number":1698,"period_min":108.32539600308,"perigee_km":1148.6066237553,"apogee_km":1149.9901663809,"semimajor_km":7527.4353950681,"source":"CELESTRAK","updated_at":"2026-05-25T13:38:07.073101Z"}}